| time (UTC) | temp F | wind direction | speed MPH | gust MPH | rain 1hr in | rain 24hr in | rain mn in | humidity % | barometer mb |
| 20260507040342 | 42 | 321 | 2.0 | 6.0 | 0.00 | 0.54 | 0.00 | 98 | 1011.5 |
| 20260507035841 | 42 | 1 | 3.0 | 6.0 | 0.00 | 0.54 | 0.54 | 98 | 1011.5 |
| 20260507035343 | 42 | 14 | 2.0 | 5.0 | 0.00 | 0.54 | 0.54 | 99 | 1011.4 |
| 20260507034842 | 42 | 314 | 2.0 | 4.0 | 0.00 | 0.56 | 0.54 | 99 | 1011.5 |
| 20260507034341 | 42 | 0 | 2.0 | 4.0 | 0.00 | 0.56 | 0.54 | 99 | 1011.4 |
| 20260507033843 | 42 | 313 | 2.0 | 4.0 | 0.00 | 0.57 | 0.54 | 99 | 1011.4 |
| 20260507033342 | 42 | 0 | 2.0 | 6.0 | 0.00 | 0.57 | 0.54 | 99 | 1011.3 |
| 20260507032838 | 42 | 318 | 2.0 | 6.0 | 0.00 | 0.57 | 0.54 | 99 | 1011.1 |
| 20260507032603 | 42 | 0 | 1.0 | 3.0 | 0.00 | 0.57 | 0.54 | 99 | 1011.1 |
| 20260507031837 | 42 | 329 | 1.0 | 3.0 | 0.00 | 0.57 | 0.54 | 99 | 1011.1 |
| 20260507031337 | 42 | 321 | 1.0 | 3.0 | 0.00 | 0.57 | 0.54 | 99 | 1011.1 |
| 20260507030836 | 42 | 288 | 2.0 | 4.0 | 0.00 | 0.57 | 0.54 | 99 | 1011.1 |
| 20260507030337 | 42 | 345 | 2.0 | 4.0 | 0.00 | 0.58 | 0.54 | 99 | 1011.0 |
| 20260507025840 | 42 | 322 | 1.0 | 4.0 | 0.00 | 0.59 | 0.54 | 99 | 1011.0 |
| 20260507025337 | 42 | 0 | 1.0 | 4.0 | 0.00 | 0.59 | 0.54 | 99 | 1011.1 |
| 20260507024836 | 43 | 322 | 2.0 | 4.0 | 0.00 | 0.59 | 0.54 | 99 | 1011.3 |
| 20260507024559 | 43 | 303 | 2.0 | 4.0 | 0.00 | 0.60 | 0.54 | 99 | 1011.1 |
| 20260507023836 | 43 | 287 | 1.0 | 5.0 | 0.00 | 0.60 | 0.54 | 99 | 1011.1 |
| 20260507023600 | 43 | 332 | 2.0 | 6.0 | 0.00 | 0.60 | 0.54 | 98 | 1011.1 |
| 20260507022833 | 43 | 341 | 2.0 | 7.0 | 0.00 | 0.61 | 0.54 | 98 | 1011.1 |
| 20260507022335 | 43 | 344 | 3.0 | 8.0 | 0.00 | 0.63 | 0.54 | 98 | 1011.2 |
| 20260507022055 | 43 | 347 | 4.0 | 8.0 | 0.00 | 0.63 | 0.54 | 98 | 1011.1 |
| 20260507021335 | 43 | 32 | 4.0 | 9.0 | 0.00 | 0.64 | 0.54 | 98 | 1011.1 |
| 20260507020835 | 43 | 4 | 4.0 | 9.0 | 0.00 | 0.65 | 0.54 | 98 | 1011.2 |
| 20260507020335 | 43 | 323 | 3.0 | 7.0 | 0.00 | 0.65 | 0.54 | 97 | 1011.3 |
| 20260507015835 | 44 | 302 | 3.0 | 7.0 | 0.00 | 0.65 | 0.54 | 97 | 1011.3 |
| 20260507015335 | 44 | 350 | 3.0 | 5.0 | 0.00 | 0.65 | 0.54 | 97 | 1011.1 |
| 20260507015054 | 44 | 11 | 3.0 | 7.0 | 0.00 | 0.65 | 0.54 | 97 | 1011.0 |
| 20260507014334 | 44 | 340 | 3.0 | 7.0 | 0.00 | 0.65 | 0.54 | 97 | 1011.1 |
| 20260507013834 | 44 | 12 | 3.0 | 7.0 | 0.00 | 0.65 | 0.54 | 96 | 1011.0 |
| 20260507013333 | 45 | 334 | 4.0 | 9.0 | 0.01 | 0.65 | 0.54 | 96 | 1011.1 |
| 20260507012831 | 45 | 335 | 4.0 | 9.0 | 0.01 | 0.66 | 0.54 | 96 | 1011.1 |
| 20260507012328 | 45 | 12 | 4.0 | 9.0 | 0.01 | 0.66 | 0.54 | 96 | 1011.0 |
| 20260507012052 | 46 | 359 | 3.0 | 7.0 | 0.01 | 0.66 | 0.54 | 97 | 1010.8 |
| 20260507011328 | 46 | 4 | 3.0 | 6.0 | 0.01 | 0.68 | 0.54 | 97 | 1010.8 |
| 20260507010829 | 46 | 33 | 2.0 | 4.0 | 0.01 | 0.69 | 0.54 | 98 | 1010.8 |
| 20260507010330 | 46 | 347 | 2.0 | 4.0 | 0.01 | 0.70 | 0.54 | 97 | 1010.7 |
| 20260507010048 | 46 | 347 | 1.0 | 3.0 | 0.01 | 0.70 | 0.54 | 97 | 1010.6 |
| 20260507005329 | 46 | 0 | 1.0 | 2.0 | 0.01 | 0.72 | 0.54 | 97 | 1010.3 |
| 20260507004830 | 46 | 96 | 1.0 | 4.0 | 0.01 | 0.73 | 0.54 | 96 | 1010.4 |
| 20260507004330 | 46 | 0 | 2.0 | 4.0 | 0.01 | 0.74 | 0.54 | 96 | 1010.3 |
| 20260507003831 | 46 | 18 | 2.0 | 4.0 | 0.01 | 0.76 | 0.54 | 95 | 1010.3 |
| 20260507003550 | 47 | 29 | 2.0 | 4.0 | 0.00 | 0.76 | 0.54 | 94 | 1010.3 |
| 20260507003044 | 47 | 323 | 1.0 | 3.0 | 0.00 | 0.76 | 0.54 | 92 | 1010.2 |
| 20260507002328 | 47 | 6 | 2.0 | 3.0 | 0.00 | 0.76 | 0.54 | 91 | 1010.1 |
| 20260507001827 | 47 | 338 | 2.0 | 3.0 | 0.00 | 0.76 | 0.53 | 90 | 1010.0 |
| 20260507001542 | 47 | 3 | 2.0 | 3.0 | 0.00 | 0.76 | 0.53 | 89 | 1010.0 |
| 20260507000826 | 48 | 13 | 1.0 | 3.0 | 0.00 | 0.76 | 0.53 | 89 | 1009.8 |
| 20260507000328 | 48 | 212 | 0.0 | 1.0 | 0.00 | 0.76 | 0.53 | 88 | 1009.7 |
| 20260506235827 | 48 | 0 | 0.0 | 1.0 | 0.00 | 0.76 | 0.53 | 88 | 1009.7 |
| 20260506235328 | 48 | 0 | 0.0 | 1.0 | 0.00 | 0.76 | 0.53 | 87 | 1009.6 |
| 20260506234828 | 48 | 37 | 0.0 | 2.0 | 0.00 | 0.76 | 0.53 | 87 | 1009.5 |
| 20260506234327 | 48 | 0 | 0.0 | 2.0 | 0.00 | 0.76 | 0.53 | 87 | 1009.6 |
| 20260506234048 | 48 | 164 | 0.0 | 3.0 | 0.00 | 0.77 | 0.53 | 87 | 1009.5 |
| 20260506233328 | 48 | 156 | 1.0 | 3.0 | 0.00 | 0.79 | 0.53 | 86 | 1009.4 |
| 20260506232829 | 47 | 272 | 1.0 | 3.0 | 0.00 | 0.81 | 0.53 | 86 | 1009.6 |
| 20260506232325 | 47 | 315 | 2.0 | 3.0 | 0.00 | 0.83 | 0.53 | 86 | 1009.5 |
| 20260506231825 | 47 | 296 | 2.0 | 2.0 | 0.00 | 0.84 | 0.53 | 86 | 1009.5 |
| 20260506231325 | 48 | 257 | 1.0 | 2.0 | 0.00 | 0.84 | 0.53 | 86 | 1009.4 |
| 20260506230825 | 48 | 226 | 0.0 | 2.0 | 0.00 | 0.84 | 0.53 | 85 | 1009.3 |
| 20260506230325 | 48 | 0 | 0.0 | 1.0 | 0.00 | 0.84 | 0.53 | 85 | 1009.2 |
| 20260506225826 | 48 | 0 | 0.0 | 2.0 | 0.00 | 0.84 | 0.53 | 85 | 1009.3 |
| 20260506225326 | 48 | 265 | 1.0 | 2.0 | 0.00 | 0.84 | 0.53 | 85 | 1009.3 |
| 20260506224826 | 48 | 285 | 1.0 | 2.0 | 0.00 | 0.84 | 0.53 | 85 | 1009.2 |
| 20260506224325 | 48 | 334 | 0.0 | 2.0 | 0.00 | 0.84 | 0.53 | 84 | 1009.1 |
| 20260506223825 | 48 | 0 | 1.0 | 3.0 | 0.00 | 0.84 | 0.53 | 84 | 1009.0 |
| 20260506223324 | 48 | 265 | 1.0 | 3.0 | 0.00 | 0.84 | 0.53 | 84 | 1009.1 |
| 20260506222823 | 48 | 350 | 1.0 | 3.0 | 0.00 | 0.84 | 0.53 | 85 | 1009.1 |
| 20260506222324 | 48 | 188 | 1.0 | 3.0 | 0.00 | 0.84 | 0.53 | 85 | 1008.9 |
| 20260506221825 | 47 | 0 | 1.0 | 3.0 | 0.00 | 0.84 | 0.53 | 85 | 1008.9 |
| 20260506221325 | 48 | 0 | 1.0 | 3.0 | 0.00 | 0.84 | 0.53 | 85 | 1009.0 |
| 20260506220823 | 48 | 191 | 1.0 | 3.0 | 0.00 | 0.84 | 0.53 | 84 | 1009.1 |
| 20260506220323 | 48 | 206 | 1.0 | 2.0 | 0.00 | 0.84 | 0.53 | 83 | 1009.1 |
| 20260506215823 | 48 | 234 | 0.0 | 2.0 | 0.00 | 0.84 | 0.53 | 84 | 1009.1 |
| 20260506215522 | 48 | 288 | 1.0 | 2.0 | 0.00 | 0.84 | 0.53 | 84 | 1009.3 |
| 20260506215411 | 48 | 16 | 0.0 | 2.0 | 0.00 | 0.84 | 0.53 | 84 | 1009.2 |
| 20260506214323 | 47 | 197 | 1.0 | 3.0 | 0.00 | 0.84 | 0.53 | 84 | 1009.2 |
| 20260506213824 | 47 | 288 | 1.0 | 3.0 | 0.00 | 0.84 | 0.53 | 84 | 1009.2 |
| 20260506213321 | 47 | 308 | 2.0 | 5.0 | 0.00 | 0.84 | 0.53 | 83 | 1009.1 |
| 20260506212821 | 47 | 0 | 2.0 | 5.0 | 0.00 | 0.84 | 0.53 | 83 | 1009.1 |
| 20260506212318 | 48 | 316 | 1.0 | 4.0 | 0.00 | 0.84 | 0.53 | 84 | 1009.1 |
| 20260506211819 | 48 | 326 | 2.0 | 4.0 | 0.00 | 0.84 | 0.53 | 83 | 1009.0 |
| 20260506211319 | 48 | 0 | 2.0 | 4.0 | 0.00 | 0.84 | 0.53 | 83 | 1009.0 |
| 20260506210814 | 48 | 333 | 1.0 | 3.0 | 0.00 | 0.84 | 0.53 | 82 | 1008.9 |
| 20260506210545 | 47 | 0 | 1.0 | 2.0 | 0.00 | 0.84 | 0.53 | 82 | 1008.8 |
| 20260506205815 | 47 | 0 | 1.0 | 4.0 | 0.00 | 0.84 | 0.53 | 84 | 1008.7 |
| 20260506205315 | 47 | 56 | 2.0 | 6.0 | 0.00 | 0.84 | 0.53 | 84 | 1008.9 |
| 20260506204815 | 47 | 297 | 3.0 | 6.0 | 0.00 | 0.84 | 0.53 | 84 | 1008.9 |
| 20260506204315 | 46 | 337 | 3.0 | 7.0 | 0.00 | 0.84 | 0.53 | 85 | 1009.0 |
| 20260506203813 | 46 | 322 | 3.0 | 7.0 | 0.00 | 0.84 | 0.53 | 85 | 1009.0 |
| 20260506203534 | 46 | 320 | 3.0 | 5.0 | 0.00 | 0.84 | 0.53 | 86 | 1009.0 |
| 20260506202814 | 46 | 332 | 3.0 | 6.0 | 0.00 | 0.84 | 0.53 | 86 | 1009.1 |
| 20260506202533 | 46 | 246 | 3.0 | 6.0 | 0.00 | 0.84 | 0.53 | 86 | 1009.0 |
| 20260506201814 | 46 | 19 | 3.0 | 6.0 | 0.00 | 0.84 | 0.53 | 87 | 1009.0 |
| 20260506201314 | 46 | 325 | 3.0 | 6.0 | 0.00 | 0.84 | 0.53 | 87 | 1009.0 |
| 20260506200814 | 46 | 324 | 2.0 | 5.0 | 0.00 | 0.84 | 0.53 | 87 | 1008.9 |
| 20260506200314 | 46 | 1 | 3.0 | 8.0 | 0.00 | 0.84 | 0.53 | 88 | 1008.9 |
| 20260506195814 | 46 | 45 | 3.0 | 8.0 | 0.00 | 0.84 | 0.53 | 87 | 1008.9 |
| 20260506195759 | 46 | 16 | 3.0 | 7.0 | 0.00 | 0.84 | 0.53 | 88 | 1008.7 |
| 20260506194814 | 46 | 42 | 4.0 | 7.0 | 0.00 | 0.84 | 0.53 | 88 | 1008.6 |
| 20260506194315 | 46 | 31 | 3.0 | 7.0 | 0.00 | 0.84 | 0.53 | 89 | 1008.7 |
| 20260506193815 | 46 | 310 | 3.0 | 7.0 | 0.00 | 0.84 | 0.53 | 89 | 1008.7 |
| 20260506193314 | 45 | 298 | 3.0 | 7.0 | 0.00 | 0.84 | 0.53 | 90 | 1008.8 |
| 20260506192811 | 45 | 332 | 3.0 | 7.0 | 0.00 | 0.84 | 0.53 | 91 | 1008.9 |
| 20260506192312 | 45 | 321 | 4.0 | 9.0 | 0.00 | 0.84 | 0.53 | 91 | 1008.9 |
| 20260506191810 | 45 | 343 | 4.0 | 9.0 | 0.00 | 0.84 | 0.53 | 90 | 1008.9 |
| 20260506191311 | 45 | 52 | 3.0 | 9.0 | 0.00 | 0.84 | 0.53 | 90 | 1008.9 |
| 20260506190811 | 45 | 316 | 3.0 | 9.0 | 0.00 | 0.84 | 0.53 | 92 | 1008.9 |
| 20260506190311 | 45 | 110 | 3.0 | 9.0 | 0.00 | 0.84 | 0.53 | 92 | 1008.9 |
| 20260506185812 | 45 | 3 | 4.0 | 9.0 | 0.00 | 0.84 | 0.53 | 94 | 1008.8 |
| 20260506185312 | 44 | 24 | 4.0 | 9.0 | 0.00 | 0.84 | 0.53 | 94 | 1008.8 |
| 20260506184811 | 44 | 28 | 4.0 | 9.0 | 0.00 | 0.84 | 0.53 | 95 | 1008.8 |
| 20260506184311 | 44 | 38 | 4.0 | 9.0 | 0.00 | 0.84 | 0.53 | 95 | 1008.8 |
| 20260506183811 | 44 | 27 | 4.0 | 9.0 | 0.00 | 0.84 | 0.53 | 96 | 1008.8 |
| 20260506183536 | 44 | 51 | 3.0 | 9.0 | 0.00 | 0.84 | 0.53 | 97 | 1008.8 |
| 20260506182809 | 44 | 353 | 3.0 | 9.0 | 0.00 | 0.84 | 0.53 | 97 | 1008.7 |
| 20260506182308 | 44 | 89 | 4.0 | 10.0 | 0.00 | 0.84 | 0.53 | 96 | 1008.8 |
| 20260506181808 | 44 | 58 | 3.0 | 10.0 | 0.00 | 0.84 | 0.53 | 96 | 1008.8 |
| 20260506181309 | 44 | 9 | 3.0 | 8.0 | 0.00 | 0.84 | 0.53 | 96 | 1008.9 |
| 20260506180810 | 44 | 353 | 4.0 | 8.0 | 0.00 | 0.84 | 0.53 | 96 | 1009.0 |
| 20260506180311 | 44 | 29 | 3.0 | 7.0 | 0.00 | 0.84 | 0.53 | 95 | 1008.9 |
| 20260506175810 | 44 | 52 | 4.0 | 9.0 | 0.00 | 0.84 | 0.53 | 96 | 1008.7 |
| 20260506175310 | 44 | 302 | 4.0 | 9.0 | 0.00 | 0.84 | 0.53 | 95 | 1008.5 |
| 20260506175028 | 45 | 13 | 3.0 | 9.0 | 0.00 | 0.84 | 0.53 | 95 | 1008.4 |
| 20260506174311 | 45 | 15 | 3.0 | 8.0 | 0.00 | 0.84 | 0.53 | 96 | 1008.4 |
| 20260506173806 | 45 | 47 | 3.0 | 8.0 | 0.00 | 0.84 | 0.53 | 96 | 1008.3 |
| 20260506173307 | 45 | 91 | 3.0 | 8.0 | 0.00 | 0.84 | 0.53 | 96 | 1008.1 |
| 20260506172803 | 44 | 69 | 4.0 | 10.0 | 0.00 | 0.84 | 0.53 | 96 | 1008.1 |
| 20260506172307 | 44 | 11 | 4.0 | 10.0 | 0.00 | 0.84 | 0.53 | 96 | 1008.0 |
| 20260506172027 | 44 | 12 | 3.0 | 9.0 | 0.00 | 0.84 | 0.53 | 97 | 1008.0 |
| 20260506171305 | 44 | 49 | 4.0 | 9.0 | 0.00 | 0.84 | 0.53 | 97 | 1008.0 |
| 20260506170806 | 44 | 50 | 4.0 | 9.0 | 0.00 | 0.84 | 0.53 | 96 | 1007.9 |
| 20260506170305 | 44 | 50 | 3.0 | 8.0 | 0.00 | 0.84 | 0.53 | 97 | 1008.1 |
| 20260506165806 | 44 | 342 | 4.0 | 8.0 | 0.00 | 0.84 | 0.53 | 98 | 1008.1 |
| 20260506165306 | 44 | 28 | 5.0 | 9.0 | 0.00 | 0.84 | 0.53 | 97 | 1008.0 |
| 20260506164806 | 44 | 22 | 4.0 | 9.0 | 0.00 | 0.84 | 0.53 | 98 | 1008.0 |
| 20260506164304 | 44 | 24 | 4.0 | 8.0 | 0.00 | 0.84 | 0.53 | 98 | 1007.8 |
| 20260506163802 | 44 | 57 | 4.0 | 7.0 | 0.00 | 0.84 | 0.53 | 99 | 1007.9 |
| 20260506163303 | 44 | 54 | 3.0 | 6.0 | 0.00 | 0.84 | 0.53 | 99 | 1007.9 |
| 20260506162805 | 44 | 12 | 3.0 | 8.0 | 0.00 | 0.84 | 0.53 | 99 | 1007.8 |
| 20260506162306 | 44 | 356 | 4.0 | 8.0 | 0.00 | 0.84 | 0.53 | 99 | 1007.8 |
| 20260506161803 | 44 | 352 | 4.0 | 9.0 | 0.00 | 0.84 | 0.53 | 99 | 1007.9 |
| 20260506161538 | 44 | 9 | 4.0 | 9.0 | 0.00 | 0.84 | 0.53 | 99 | 1007.9 |
| 20260506160803 | 44 | 38 | 4.0 | 8.0 | 0.00 | 0.84 | 0.53 | 100 | 1008.0 |
| 20260506160303 | 44 | 99 | 3.0 | 8.0 | 0.00 | 0.84 | 0.53 | 100 | 1008.0 |
| 20260506155803 | 44 | 13 | 3.0 | 8.0 | 0.00 | 0.84 | 0.53 | 100 | 1008.1 |
| 20260506155251 | 44 | 103 | 3.0 | 7.0 | 0.00 | 0.84 | 0.53 | 100 | 1008.0 |
| 20260506154751 | 44 | 18 | 4.0 | 7.0 | 0.00 | 0.84 | 0.53 | 100 | 1007.9 |
| 20260506154251 | 44 | 1 | 3.0 | 7.0 | 0.00 | 0.84 | 0.53 | 100 | 1008.0 |
| 20260506153748 | 44 | 43 | 3.0 | 8.0 | 0.00 | 0.84 | 0.53 | 100 | 1007.9 |
| 20260506153732 | 44 | 5 | 3.0 | 8.0 | 0.00 | 0.84 | 0.53 | 100 | 1008.0 |
| 20260506152745 | 44 | 14 | 3.0 | 7.0 | 0.00 | 0.84 | 0.53 | 100 | 1008.1 |
| 20260506152240 | 44 | 342 | 3.0 | 7.0 | 0.00 | 0.84 | 0.53 | 100 | 1008.0 |
| 20260506151734 | 44 | 340 | 3.0 | 6.0 | 0.00 | 0.84 | 0.53 | 100 | 1007.9 |
| 20260506151233 | 44 | 4 | 3.0 | 8.0 | 0.00 | 0.84 | 0.53 | 100 | 1007.9 |
| 20260506150736 | 44 | 18 | 4.0 | 8.0 | 0.00 | 0.84 | 0.53 | 100 | 1008.0 |
| 20260506150236 | 44 | 53 | 4.0 | 6.0 | 0.00 | 0.84 | 0.53 | 99 | 1008.0 |
| 20260506145736 | 44 | 24 | 2.0 | 6.0 | 0.00 | 0.84 | 0.53 | 99 | 1007.8 |
| 20260506145235 | 44 | 5 | 2.0 | 4.0 | 0.00 | 0.84 | 0.53 | 99 | 1007.8 |
| 20260506144734 | 44 | 26 | 1.0 | 3.0 | 0.00 | 0.84 | 0.53 | 100 | 1007.6 |
| 20260506144235 | 44 | 70 | 2.0 | 6.0 | 0.00 | 0.84 | 0.53 | 99 | 1007.5 |
| 20260506143726 | 44 | 75 | 3.0 | 9.0 | 0.00 | 0.84 | 0.53 | 99 | 1007.5 |
| 20260506143225 | 44 | 127 | 3.0 | 9.0 | 0.00 | 0.84 | 0.53 | 99 | 1007.5 |
| 20260506142725 | 44 | 32 | 3.0 | 8.0 | 0.00 | 0.84 | 0.53 | 99 | 1007.5 |
| 20260506142224 | 44 | 56 | 2.0 | 6.0 | 0.00 | 0.84 | 0.53 | 99 | 1007.4 |
| 20260506141722 | 44 | 28 | 3.0 | 5.0 | 0.00 | 0.84 | 0.53 | 99 | 1007.5 |
| 20260506141213 | 44 | 104 | 3.0 | 6.0 | 0.00 | 0.84 | 0.53 | 98 | 1007.5 |
| 20260506140713 | 44 | 91 | 2.0 | 6.0 | 0.00 | 0.84 | 0.53 | 99 | 1007.6 |
| 20260506140205 | 44 | 46 | 3.0 | 6.0 | 0.00 | 0.84 | 0.53 | 98 | 1007.6 |
| 20260506135653 | 43 | 78 | 3.0 | 6.0 | 0.00 | 0.84 | 0.53 | 98 | 1007.6 |
| 20260506135152 | 43 | 74 | 3.0 | 6.0 | 0.00 | 0.84 | 0.53 | 99 | 1007.6 |
| 20260506134650 | 44 | 32 | 2.0 | 6.0 | 0.00 | 0.84 | 0.53 | 99 | 1007.6 |
| 20260506134150 | 44 | 79 | 3.0 | 11.0 | 0.00 | 0.84 | 0.53 | 100 | 1007.6 |
| 20260506133637 | 43 | 0 | 4.0 | 11.0 | 0.01 | 0.84 | 0.53 | 99 | 1007.5 |
| 20260506133135 | 43 | 94 | 4.0 | 9.0 | 0.01 | 0.84 | 0.53 | 100 | 1007.4 |
| 20260506132637 | 43 | 118 | 4.0 | 9.0 | 0.01 | 0.84 | 0.53 | 100 | 1007.4 |
| 20260506132136 | 43 | 32 | 4.0 | 9.0 | 0.01 | 0.84 | 0.53 | 100 | 1007.4 |
| 20260506131634 | 43 | 101 | 2.0 | 6.0 | 0.01 | 0.84 | 0.53 | 100 | 1007.4 |
| 20260506131134 | 43 | 59 | 2.0 | 4.0 | 0.01 | 0.84 | 0.53 | 99 | 1007.4 |
| 20260506130633 | 43 | 73 | 3.0 | 5.0 | 0.02 | 0.84 | 0.53 | 99 | 1007.6 |
| 20260506130133 | 43 | 71 | 2.0 | 5.0 | 0.02 | 0.84 | 0.53 | 99 | 1007.6 |
| 20260506125636 | 43 | 30 | 2.0 | 3.0 | 0.03 | 0.84 | 0.53 | 99 | 1007.8 |
| 20260506125121 | 43 | 58 | 2.0 | 5.0 | 0.04 | 0.84 | 0.53 | 99 | 1007.7 |
| 20260506124606 | 43 | 84 | 4.0 | 9.0 | 0.04 | 0.84 | 0.53 | 99 | 1007.7 |
| 20260506124054 | 43 | 73 | 4.0 | 9.0 | 0.03 | 0.83 | 0.52 | 99 | 1007.6 |
| 20260506123551 | 43 | 83 | 2.0 | 4.0 | 0.03 | 0.83 | 0.52 | 99 | 1007.6 |
| 20260506123050 | 43 | 121 | 2.0 | 3.0 | 0.03 | 0.83 | 0.52 | 99 | 1007.7 |
| 20260506122551 | 43 | 80 | 2.0 | 3.0 | 0.03 | 0.83 | 0.52 | 99 | 1007.7 |
| 20260506122052 | 43 | 56 | 2.0 | 4.0 | 0.03 | 0.83 | 0.52 | 99 | 1007.6 |
| 20260506122035 | 43 | 85 | 2.0 | 4.0 | 0.03 | 0.83 | 0.52 | 99 | 1007.8 |
| 20260506121051 | 43 | 29 | 2.0 | 3.0 | 0.03 | 0.82 | 0.51 | 99 | 1007.7 |
| 20260506120551 | 43 | 24 | 2.0 | 4.0 | 0.03 | 0.82 | 0.51 | 99 | 1007.9 |
| 20260506120051 | 43 | 83 | 2.0 | 4.0 | 0.02 | 0.81 | 0.50 | 99 | 1007.7 |
| 20260506115551 | 43 | 98 | 3.0 | 9.0 | 0.02 | 0.81 | 0.50 | 99 | 1007.4 |
| 20260506115042 | 43 | 225 | 4.0 | 9.0 | 0.02 | 0.80 | 0.49 | 99 | 1007.5 |
| 20260506114542 | 43 | 133 | 5.0 | 9.0 | 0.03 | 0.80 | 0.49 | 99 | 1007.4 |
| 20260506114302 | 43 | 135 | 5.0 | 10.0 | 0.03 | 0.80 | 0.49 | 99 | 1007.2 |
| 20260506113543 | 43 | 161 | 5.0 | 10.0 | 0.04 | 0.80 | 0.49 | 99 | 1007.3 |
| 20260506113042 | 43 | 76 | 4.0 | 6.0 | 0.04 | 0.80 | 0.49 | 99 | 1007.2 |
| 20260506112808 | 43 | 196 | 3.0 | 6.0 | 0.04 | 0.80 | 0.49 | 99 | 1007.4 |
| 20260506112043 | 43 | 182 | 2.0 | 8.0 | 0.05 | 0.80 | 0.49 | 99 | 1007.4 |
| 20260506111543 | 43 | 103 | 3.0 | 8.0 | 0.05 | 0.80 | 0.48 | 99 | 1007.6 |
| 20260506111037 | 43 | 75 | 4.0 | 10.0 | 0.05 | 0.79 | 0.48 | 99 | 1007.6 |
| 20260506110537 | 43 | 75 | 4.0 | 10.0 | 0.06 | 0.79 | 0.48 | 99 | 1007.5 |
| 20260506110037 | 43 | 82 | 4.0 | 8.0 | 0.07 | 0.79 | 0.48 | 99 | 1007.5 |
| 20260506105535 | 43 | 96 | 4.0 | 8.0 | 0.07 | 0.78 | 0.47 | 99 | 1007.5 |
| 20260506105036 | 44 | 62 | 3.0 | 6.0 | 0.07 | 0.78 | 0.47 | 99 | 1007.5 |
| 20260506104534 | 44 | 108 | 3.0 | 6.0 | 0.08 | 0.78 | 0.46 | 99 | 1007.7 |
| 20260506104257 | 44 | 67 | 3.0 | 5.0 | 0.08 | 0.77 | 0.46 | 99 | 1007.8 |
| 20260506103535 | 44 | 25 | 3.0 | 5.0 | 0.09 | 0.77 | 0.46 | 99 | 1007.8 |
| 20260506103256 | 44 | 59 | 3.0 | 5.0 | 0.10 | 0.76 | 0.45 | 99 | 1007.8 |
| 20260506102536 | 44 | 35 | 2.0 | 5.0 | 0.10 | 0.76 | 0.45 | 99 | 1007.7 |
| 20260506102300 | 44 | 69 | 2.0 | 5.0 | 0.09 | 0.75 | 0.44 | 99 | 1007.7 |
| 20260506101535 | 44 | 124 | 2.0 | 5.0 | 0.08 | 0.74 | 0.43 | 99 | 1007.7 |
| 20260506101036 | 44 | 67 | 2.0 | 6.0 | 0.07 | 0.74 | 0.43 | 99 | 1007.6 |
| 20260506100535 | 44 | 79 | 2.0 | 6.0 | 0.07 | 0.73 | 0.42 | 99 | 1007.8 |
| 20260506100037 | 44 | 90 | 3.0 | 6.0 | 0.07 | 0.72 | 0.41 | 99 | 1007.5 |
| 20260506095535 | 44 | 60 | 3.0 | 7.0 | 0.07 | 0.71 | 0.40 | 99 | 1007.6 |
| 20260506095245 | 44 | 10 | 3.0 | 6.0 | 0.06 | 0.69 | 0.38 | 99 | 1007.3 |
| 20260506095130 | 44 | 77 | 3.0 | 7.0 | 0.06 | 0.70 | 0.39 | 99 | 1007.4 |
| 20260506094036 | 44 | 69 | 3.0 | 6.0 | 0.06 | 0.69 | 0.38 | 99 | 1007.1 |
| 20260506093532 | 44 | 0 | 3.0 | 10.0 | 0.06 | 0.68 | 0.37 | 99 | 1007.4 |
| 20260506093029 | 44 | 140 | 4.0 | 12.0 | 0.05 | 0.67 | 0.35 | 99 | 1007.1 |
| 20260506092529 | 44 | 88 | 5.0 | 12.0 | 0.05 | 0.66 | 0.35 | 99 | 1006.9 |
| 20260506092026 | 44 | 113 | 3.0 | 6.0 | 0.06 | 0.66 | 0.35 | 99 | 1006.9 |
| 20260506091524 | 44 | 87 | 3.0 | 7.0 | 0.06 | 0.66 | 0.35 | 99 | 1007.1 |
| 20260506091014 | 44 | 99 | 3.0 | 7.0 | 0.07 | 0.66 | 0.35 | 99 | 1007.3 |
| 20260506090734 | 44 | 67 | 3.0 | 6.0 | 0.07 | 0.65 | 0.34 | 99 | 1007.2 |
| 20260506090009 | 44 | 96 | 4.0 | 7.0 | 0.06 | 0.65 | 0.33 | 99 | 1007.2 |
| 20260506085509 | 44 | 107 | 4.0 | 9.0 | 0.06 | 0.64 | 0.33 | 99 | 1007.1 |
| 20260506085010 | 44 | 70 | 4.0 | 9.0 | 0.06 | 0.63 | 0.32 | 99 | 1007.2 |
| 20260506084509 | 44 | 65 | 4.0 | 9.0 | 0.06 | 0.63 | 0.32 | 99 | 1007.6 |
| 20260506084009 | 44 | 109 | 3.0 | 9.0 | 0.06 | 0.63 | 0.31 | 99 | 1007.6 |
| 20260506083509 | 44 | 121 | 4.0 | 5.0 | 0.06 | 0.62 | 0.31 | 99 | 1007.7 |
| 20260506083233 | 45 | 40 | 3.0 | 9.0 | 0.06 | 0.62 | 0.31 | 99 | 1008.0 |
| 20260506082457 | 45 | 79 | 3.0 | 9.0 | 0.06 | 0.61 | 0.30 | 99 | 1008.0 |
| 20260506081957 | 45 | 35 | 3.0 | 9.0 | 0.06 | 0.61 | 0.30 | 99 | 1008.1 |
| 20260506081457 | 45 | 75 | 3.0 | 7.0 | 0.06 | 0.60 | 0.29 | 99 | 1008.1 |
| 20260506080951 | 45 | 39 | 3.0 | 9.0 | 0.06 | 0.59 | 0.28 | 99 | 1008.1 |
| 20260506080451 | 45 | 87 | 3.0 | 9.0 | 0.06 | 0.59 | 0.28 | 99 | 1007.7 |
| 20260506073449 | 46 | 46 | 3.0 | 8.0 | 0.12 | 0.57 | 0.26 | 99 | 1007.6 |
| 20260506072948 | 46 | 90 | 4.0 | 8.0 | 0.12 | 0.56 | 0.25 | 99 | 1007.5 |
| 20260506072450 | 46 | 51 | 4.0 | 7.0 | 0.12 | 0.56 | 0.24 | 99 | 1007.6 |
| 20260506071951 | 46 | 51 | 3.0 | 7.0 | 0.12 | 0.55 | 0.24 | 99 | 1007.7 |
| 20260506071449 | 46 | 22 | 3.0 | 9.0 | 0.12 | 0.54 | 0.23 | 99 | 1007.9 |
| 20260506070946 | 46 | 275 | 3.0 | 9.0 | 0.12 | 0.54 | 0.23 | 99 | 1007.9 |
| 20260506070445 | 46 | 75 | 4.0 | 9.0 | 0.11 | 0.53 | 0.22 | 99 | 1007.6 |
| 20260506062441 | 47 | 37 | 2.0 | 6.0 | 0.03 | 0.43 | 0.12 | 99 | 1007.6 |
| 20260506062427 | 47 | 68 | 2.0 | 6.0 | 0.02 | 0.43 | 0.11 | 99 | 1007.6 |
| 20260506061439 | 47 | 91 | 2.0 | 6.0 | 0.03 | 0.43 | 0.11 | 99 | 1007.7 |
| 20260506060939 | 47 | 179 | 2.0 | 4.0 | 0.03 | 0.42 | 0.11 | 99 | 1007.9 |
| 20260506060440 | 47 | 72 | 2.0 | 4.0 | 0.03 | 0.42 | 0.11 | 99 | 1007.8 |
| 20260506050934 | 47 | 128 | 2.0 | 4.0 | 0.08 | 0.39 | 0.08 | 99 | 1008.6 |
| 20260506050431 | 47 | 138 | 2.0 | 4.0 | 0.08 | 0.39 | 0.08 | 99 | 1009.0 |
| 20260506044932 | 47 | 139 | 4.0 | 6.0 | 0.08 | 0.38 | 0.07 | 99 | 1008.6 |
| 20260506044432 | 47 | 152 | 3.0 | 6.0 | 0.08 | 0.37 | 0.06 | 99 | 1008.7 |
| 20260506043931 | 47 | 95 | 2.0 | 5.0 | 0.08 | 0.37 | 0.06 | 99 | 1008.8 |
| 20260506043910 | 47 | 151 | 3.0 | 6.0 | 0.07 | 0.36 | 0.05 | 99 | 1008.5 |
| 20260506042931 | 47 | 117 | 4.0 | 7.0 | 0.07 | 0.35 | 0.04 | 99 | 1008.6 |
| 20260506042700 | 47 | 131 | 4.0 | 7.0 | 0.06 | 0.34 | 0.03 | 99 | 1008.6 |
| 20260506042156 | 47 | 133 | 4.0 | 7.0 | 0.05 | 0.33 | 0.02 | 99 | 1008.8 |
| 20260506041431 | 47 | 90 | 3.0 | 4.0 | 0.04 | 0.32 | 0.01 | 99 | 1008.8 |
| 20260506040930 | 47 | 129 | 3.0 | 4.0 | 0.04 | 0.31 | 0.00 | 99 | 1009.0 |
| 20260506040920 | 47 | 157 | 2.0 | 4.0 | 0.04 | 0.31 | 0.00 | 99 | 1009.1 |